Regional Weather Roundup
Issued by NWS

Home | Current Version | Previous Version | Graphics & Text | Print | Product List | Glossary On
Versions: 1 2 3 4 5 6 7 8 9 10 11 12 13 14 15 16 17 18 19 20 21 22 23 24 25 26 27 28 29 30 31 32 33 34 35 36 37 38 39 40 41 42 43 44 45 46 47 48 49 50
000
ASUS43 KLOT 260510
RWRIL

ILLINOIS REGIONAL WEATHER ROUNDUP
NATIONAL WEATHER SERVICE CHICAGO/ROMEOVILLE IL
1100 PM CST SUN JAN 25 2015

NOTE: "FAIR" INDICATES FEW OR NO CLOUDS BELOW 12,000 FEET WITH NO
SIGNIFICANT WEATHER AND/OR OBSTRUCTIONS TO VISIBILITY.

* THESE STATIONS ARE NOT UNDER NWS QUALITY CONTROL. THEY ALSO MAY NOT
  REPORT WEATHER SUCH AS PRECIPITATION OR FOG.

ILZ001-002-007-009-015-016-024-260600-
NORTHWEST ILLINOIS

CITY           SKY/WX    TMP DP  RH WIND       PRES   REMARKS
MOLINE         PTCLDY    20  13  74 N6        30.05F WCI  12
STERLING*      CLEAR     18  12  79 N7        30.04S WCI   8
SAVANNA*       PTCLDY    19  13  75 N3        30.05F
$$

ILZ003-004-008-010-011-017-018-260600-
NORTH CENTRAL ILLINOIS

CITY           SKY/WX    TMP DP  RH WIND       PRES   REMARKS
ROCKFORD       PTCLDY    17  10  74 N8        30.03F WCI   7
FREEPORT*      PTCLDY    15  11  84 CALM      30.05F
ROCHELLE*      CLEAR     17  12  81 N8        30.02F WCI   6
DE KALB*       CLEAR     16  11  80 NW9       30.00S WCI   4
PERU*          CLEAR     19  14  81 N10       30.02F WCI   8
$$

ILZ005-006-012>014-019>023-260600-
NORTHEAST ILLINOIS

CITY           SKY/WX    TMP DP  RH WIND       PRES   REMARKS
CHICAGO-OHARE  MOCLDY    24  15  68 NE9       29.99R WCI  14
CHICAGO-MIDWAY CLOUDY    27  18  69 N15       29.98S WCI  15
AURORA         CLEAR     18  12  77 N7        30.00S WCI   9
LANSING*       CLOUDY    25  19  76 NE12G18   29.97S WCI  15
JOLIET*        PTCLDY    22  16  78 N5        30.00R WCI  16
WAUKEGAN       PTCLDY    23  14  68 NE13      29.98F WCI  11
DUPAGE AIRPORT CLEAR     15  11  83 N7        29.98F WCI   5
KANKAKEE*      CLOUDY    27  22  80 N10       29.97S WCI  17
WHEELING       CLOUDY    25  15  66 NE10      30.01S WCI  15
MORRIS*        CLEAR     22  18  85 N5        29.99R WCI  16
ROMEOVILLE*    MOCLDY    24  17  75 N10       29.99R WCI  13
NORTHERLY ISL    N/A     25  17  72 N18         N/A  WCI  12
$$

LMZ740>746-260600-
SOUTHERN LAKE MICHIGAN

STATION/POSITION SKY/WX   TEMP    WIND        PRES    VSBY  WAVE
                          AIR SEA DIR/SP/G                  HT/PER
                          (F)     (DEG/KT/KT) (MB)    (MI)  (FT/S)
WAUKEGAN HARBOR            26      50/ 17/ 24   N/A
HARRISON CRIB              25      30/ 18/ 22   N/A
BURNHAM HARBOR             26      30/ 14/ 19   N/A
CALUMET HARBOR             25      20/ 12/ 17   N/A
MICHIGAN CITY              22      30/ 17/ 19   N/A
$$

ILZ025>027-034>036-040-047-049-050-058-095>099-260600-
WEST-CENTRAL ILLINOIS

CITY           SKY/WX    TMP DP  RH WIND       PRES   REMARKS
QUINCY         CLEAR     24  20  84 N9        30.05S WCI  14
GALESBURG*     CLEAR     20  17  88 N8        30.04S WCI  11
MACOMB*        CLEAR     24  20  83 N10       30.07S WCI  14
JACKSONVILLE*  CLEAR     28  19  70 N15       30.03S WCI  16
PITTSFIELD*    CLEAR     27  20  76 N8        30.05S WCI  19
$$

ILZ028>032-037-038-041>044-048-051>054-059>061-260600-
CENTRAL ILLINOIS

CITY           SKY/WX    TMP DP  RH WIND       PRES   REMARKS
PONTIAC        CLOUDY    27  22  81 N15       30.00R WCI  15
BLOOMINGTON    CLOUDY    26  22  85 N16       29.99R WCI  14
DECATUR        CLOUDY    29  28  96 N18       29.96R WCI  16
PEORIA         CLEAR     23  15  71 N9        30.02S WCI  13
LACON*         CLEAR     21  15  75 N7        30.03S WCI  13
LINCOLN*       CLOUDY    28  22  78 N13       30.02R WCI  18
SPRINGFIELD    CLOUDY    28  21  75 N15       30.02R WCI  16
TAYLORVILLE    CLOUDY    30  27  86 N20       29.99R WCI  18
$$

ILZ033-039-045-046-055>057-062-063-260600-
EAST-CENTRAL ILLINOIS

CITY           SKY/WX    TMP DP  RH WIND       PRES   REMARKS
CHAMPAIGN      CLOUDY    28  24  85 N15       29.93R WCI  16
DANVILLE*      CLOUDY    27  23  86 N15       29.91R WCI  15
RANTOUL*       CLOUDY    29  24  81 N16       29.94S WCI  17
MATTOON        CLOUDY    29  24  82 N17       29.91R WCI  17
PARIS*         CLOUDY    28  25  88 NE10G18   29.92R WCI  19
$$

ILZ079-100>102-260600-
SOUTHWEST ILLINOIS

CITY           SKY/WX    TMP DP  RH WIND       PRES   REMARKS
ALTON          CLOUDY    31  26  80 NW13      30.01R WCI  21
BELLEVILLE     CLOUDY    32  29  90 N13G25    29.98R WCI  22
CAHOKIA*       CLOUDY    32  26  78 N16G26    30.01R WCI  21
SPARTA*        CLOUDY    32  29  87 N15       29.96R WCI  22
$$

ILZ064>066-069>071-074>076-080>082-084>086-088>090-092>094-260600-
SOUTH-CENTRAL ILLINOIS

CITY           SKY/WX    TMP DP  RH WIND       PRES   REMARKS
CARBONDALE     CLOUDY    34  29  82 N21G28    29.93R WCI  22
CAIRO*         CLOUDY    39  35  87 NW14G30   29.90R WCI  31
EFFINGHAM*     CLOUDY    31  25  76 N14G23    29.94R WCI  21
MARION         CLOUDY    36  32  87 N12       29.92R WCI  27
MT. VERNON     CLOUDY    34  27  75 N8G16     29.91R WCI  27
CENTRALIA*     CLOUDY    32  28  86 N17G23    29.94R WCI  21
SALEM*         CLOUDY    33  30  86 N18G24    29.93R WCI  22
METROPOLIS*    CLOUDY    37  37 100 NW15G22   29.87R WCI  28
$$

ILZ067-068-072-073-078-083-087-091-260600-
SOUTHEAST ILLINOIS

CITY           SKY/WX    TMP DP  RH WIND       PRES   REMARKS
LAWRENCEVILLE  CLOUDY    31  27  85 N20       29.87R WCI  19
FLORA*         CLOUDY    32  28  86 N22G30    29.91R WCI  19
FAIRFIELD*     CLOUDY    32  29  87 N20G26    29.89R WCI  20
HARRISBURG*    CLOUDY    34  32  92 NW13G22   29.90R WCI  25
ROBINSON*      CLOUDY    29  26  88 N17       29.89R WCI  17
CARMI*         CLOUDY    34  32  93 N18       29.87R WCI  23
$$

ABBREVIATIONS USED IN REMARKS
   TC - TEMPERATURE IN CELSIUS
  WCI - WIND CHILL INDEX
   HX - HEAT INDEX
  VSB - VISIBILITY
$$



USA.gov is the U.S. government's official web portal to all federal, state and local government web resources and services.